Location: Halle (Saale)
(51.4970°N, 11.9688°E)
Time: 17:31:19
(UTC+02:00)

ISS - Visible Passes

Search period start: 19 September 2020 00:00
Search period end: 29 September 2020 00:00
Orbit: 419 x 420 km, 51.6° (Epoch: 19 September)

Date Brightness Start Highest point End Pass type
(mag) Time Alt. Az. Time Alt. Az. Time Alt. Az.
19 Sep -3.1 20:52:52 10° SW 20:55:59 35° SSE 20:56:08 35° SE visible
20 Sep -2.5 20:05:53 10° SSW 20:08:44 25° SSE 20:10:54 14° E visible
20 Sep -2.3 21:41:51 10° WSW 21:43:53 33° WSW 21:43:53 33° WSW visible
21 Sep -3.7 20:54:32 10° WSW 20:57:52 62° SSE 20:58:30 49° ESE visible
21 Sep -0.5 22:31:17 10° W 22:31:28 11° W 22:31:28 11° W visible
22 Sep -3.4 20:07:16 10° SW 20:10:31 47° SSE 20:13:01 16° E visible
22 Sep -2.3 21:43:51 10° W 21:45:59 36° W 21:45:59 36° W visible
23 Sep -3.9 20:56:26 10° W 20:59:49 87° S 21:00:26 57° E visible
23 Sep -0.4 22:33:16 10° W 22:33:23 11° W 22:33:23 11° W visible
24 Sep -3.8 20:09:01 10° WSW 20:12:24 76° SSE 20:14:49 18° E visible
24 Sep -2.0 21:45:50 10° W 21:47:46 31° W 21:47:46 31° W visible
25 Sep -3.9 20:58:23 10° W 21:01:47 85° N 21:02:07 71° ENE visible
26 Sep -3.8 20:10:56 10° W 20:14:20 86° N 20:16:26 21° E visible
26 Sep -1.6 21:47:47 10° W 21:49:23 26° W 21:49:23 26° W visible
27 Sep -3.9 21:00:18 10° W 21:03:41 81° SSW 21:03:41 81° SSW visible
28 Sep -3.8 20:12:50 10° W 20:16:13 90° N 20:17:59 26° E visible
28 Sep -1.2 21:49:42 10° W 21:50:56 20° W 21:50:56 20° W visible
